Location: Elbart
(49.6135°N, 11.9134°E)
Time: 01:22:34
(UTC+00:00)

Aureole 1 Rocket - Pass Details

Date: 09 April 2020
Orbit: 379 x 1379 km, 73.9° (Epoch: 30 May)

Event Time Altitude Azimuth Distance (km) Brightness Sun altitude
Rises 18:35:09 0° 191° (S) 4,172 7.2 -6.8°
Reaches altitude 10° 18:38:11 10° 189° (S) 3,091 6.5 -7.2°
Maximum altitude 18:45:22 65° 110° (ESE) 1,077 4.0 -8.3°
Drops below altitude 10° 18:50:55 10° 30° (NNE) 2,416 6.0 -9.1°
Sets 18:53:03 0° 27° (NNE) 3,210 6.7 -9.4°
